カタログに戻る

COSMOS 2161

運用中軍事PO
NORAD 21732·PAYLOAD·🇷🇺 Russia

打ち上げ Sep 28, 1991 から Plesetsk Cosmodrome

Loading…

次のパス (今後24時間)

TLE

最新Source: Space-Track

元期: Sep 14, 2026, 09:44 UTC

1 21732U 91068E   26257.40558927  .00000010  00000-0 -60698-5 0  9997
2 21732  82.5745 227.6298 0011862 126.0289  29.5441 12.65280494614546

AllMySatでCOSMOS 2161をリアルタイム追跡

Download on the App Store